This is the latest recevied weather packets stored in our database for station/object W1SCW. If no packets are shown the sender has not sent any weather packets the latest 10 day(s).
| Time | Temp. | Humidity | Pressure | Rain* | Wind** | Luminosity | Snow |
|---|---|---|---|---|---|---|---|
| 1778032745 | 26.11° C | 84% | 1006 hPa | 0 mm | - | 0 W/m² | - |
| 1778032442 | 26.11° C | 83% | 1006.3 hPa | 0 mm | - | 0 W/m² | - |
| 1778032139 | 26.11° C | 83% | 1005.9 hPa | 0 mm | - | 0 W/m² | - |
| 1778031835 | 26.11° C | 83% | 1006.2 hPa | 0 mm | - | 0 W/m² | - |
| 1778031532 | 26.11° C | 83% | 1005.9 hPa | 0 mm | - | 0 W/m² | - |
| 1778031230 | 26.11° C | 82% | 1005.9 hPa | 0 mm | - | 0 W/m² | - |
| 1778030926 | 26.67° C | 82% | 1005.8 hPa | 0 mm | - | 0 W/m² | - |
| 1778030623 | 26.67° C | 82% | 1005.7 hPa | 0 mm | - | 0 W/m² | - |
| 1778030320 | 26.67° C | 82% | 1005.8 hPa | 0 mm | - | 0 W/m² | - |
| 1778030017 | 26.67° C | 81% | 1005.5 hPa | 0 mm | - | 0 W/m² | - |
| 1778029714 | 26.67° C | 81% | 1005.6 hPa | 0 mm | - | 1 W/m² | - |
| 1778029412 | 26.67° C | 81% | 1005.4 hPa | 0 mm | - | 1 W/m² | - |
| 1778029109 | 26.67° C | 81% | 1005.3 hPa | 0 mm | - | 3 W/m² | - |
| 1778028806 | 26.67° C | 81% | 1005.1 hPa | 0 mm | - | 5 W/m² | - |
| 1778028502 | 26.67° C | 80% | 1005.3 hPa | 0 mm | - | 6 W/m² | - |
| 1778028200 | 26.67° C | 80% | 1005.1 hPa | 0 mm | - | 11 W/m² | - |
| 1778027895 | 26.67° C | 79% | 1005.2 hPa | 0 mm | - | 15 W/m² | - |
| 1778027592 | 26.67° C | 79% | 1005.4 hPa | 0 mm | - | 20 W/m² | - |
| 1778027288 | 27.22° C | 79% | 1005.2 hPa | 0 mm | - | 28 W/m² | - |
| 1778026985 | 27.22° C | 78% | 1005.3 hPa | 0 mm | - | 34 W/m² | - |
| 1778026680 | 27.22° C | 79% | 1004.9 hPa | 0 mm | - | 40 W/m² | - |
| 1778026378 | 27.22° C | 79% | 1005.1 hPa | 0 mm | - | 48 W/m² | - |
| 1778026075 | 27.22° C | 79% | 1005.1 hPa | 0 mm | - | 64 W/m² | - |
| 1778025772 | 27.22° C | 78% | 1005.1 hPa | 0 mm | - | 56 W/m² | - |
| 1778025469 | 27.22° C | 78% | 1005.1 hPa | 0 mm | - | 58 W/m² | - |
* Rain latest hour (hover to see other rain measurements)
** Current wind speed in m/s (hover to see current wind gust speed)